Regional Weather Roundup
Issued by NWS

Home | Current Version | Previous Version | Graphics & Text | Print | Product List | Glossary On
Versions: 1 2 3 4 5 6 7 8 9 10 11 12 13 14 15 16 17 18 19 20 21 22 23 24 25 26 27 28 29 30 31 32 33 34 35 36 37 38 39 40 41 42 43 44 45 46 47 48 49 50
000
ASUS43 KMPX 241401
RWRMN
WEATHER ROUNDUP FOR MINNESOTA
NATIONAL WEATHER SERVICE TWIN CITIES/CHANHASSEN MN
900 AM CDT THU MAY 24 2018


NOTE: "FAIR" INDICATES FEW OR NO CLOUDS BELOW 12,000 FEET WITH NO
SIGNIFICANT WEATHER AND/OR OBSTRUCTIONS TO VISIBILITY. N/A MEANS
CURRENT SKY AND/OR WEATHER CONDITIONS ARE NOT AVAILABLE.

MNZ060>063-068>070-241500-
   Twin Cities Metro

CITY           SKY/WX    TMP DP  RH WIND       PRES   REMARKS
TWIN CITIES    PTSUNNY   78  66  66 S7        30.03F
ST PAUL        FAIR      75  65  70 SE6       30.04F
CRYSTAL        FAIR      77  64  64 S10       30.01F
BLAINE         PTSUNNY   79  64  61 S10       30.04S
LAKEVILLE      FAIR      75  64  69 S10       30.04F
EDEN PRAIRIE   FAIR      77  65  66 SW6       30.02F
SOUTH ST PAUL  FAIR      77  64  64 S8        30.04F
LAKE ELMO      FAIR      75  64  69 S12       30.06F
$$
MNZ001>005-007-008-013>017-022>024-027-028-241500-
   Northwest Minnesota

CITY           SKY/WX    TMP DP  RH WIND       PRES   REMARKS
BEMIDJI        FAIR      74  64  71 SE12      29.94F
HALLOCK        FAIR      73  64  73 SE15      29.81F
ROSEAU         FAIR      72  64  78 E10       29.88F
WARROAD        FAIR      70  64  83 E9        29.91F
THIEF RVR FALL FAIR      73  64  73 S10       29.87F
CROOKSTON      FAIR      75  64  69 S21       29.83F
FOSSTON        FAIR      73  61  64 SE13      29.89S
DETROIT LAKES  FAIR      73  63  68 S13G18    29.92S
MOORHEAD       FAIR      75  63  64 S14G22    29.86S
PARK RAPIDS    FAIR      73  64  73 SE17G29   29.95F
MAHNOMEN       FAIR      74  64  71 S12       29.88S
$$
MNZ006-009>011-018-025>026-241500-
   North Central Minnesota

CITY           SKY/WX    TMP DP  RH WIND       PRES   REMARKS
BAUDETTE       CLOUDY    71  65  81 SE13      29.93F
FLAG ISLAND    FAIR      68  63  83 E5        29.91F
INTL FALLS     LGT RAIN  65  64  97 S8        29.97F
WASKISH          N/A     70  64  83 SE12G17   29.94F
BIG FORK       FAIR      66  63  88 SE5       30.00S
LONGVILLE      LGT RAIN  66  63  88 SE8       29.99F
GRAND RAPIDS   TSTM      64  62  93 SE6       30.04R
CRANE LAKE     PTSUNNY   66  61  82 S3        30.05R
ORR            RAIN      63  61  94 CALM      30.02R
COOK           RAIN      64  63  94 S7        30.05R
WALKER         FAIR      71  62  74 S8G16     29.96S
$$
MNZ012-019>021-037-241500-
   Northeast Minnesota

CITY           SKY/WX    TMP DP  RH WIND       PRES   REMARKS
DULUTH         LGT RAIN  64  62  93 S3        30.06F
ELY            FAIR      70  59  68 S9        30.04F
HIBBING        LGT RAIN  62  62 100 NW5       30.05S FOG
EVELETH        RAIN      63  61  94 SW6       30.07R
DULUTH HARBOR  DRIZZLE   50  48  93 E5        30.07F
TWO HARBORS    PTSUNNY   64  61  88 S3        30.06S HAZE
SILVER BAY     PTSUNNY   64  57  77 SE5       30.06S
G MARAIS ARPRT FAIR      64  52  63 SE5       30.10F
$$
MNZ029>031-032-039>041-046>048-054>057-064-241500-
   West Central Minnesota

CITY           SKY/WX    TMP DP  RH WIND       PRES   REMARKS
FERGUS FALLS   FAIR      75  64  69 S15       29.85F
WHEATON        MOSUNNY   73  63  68 S14G22    29.90R
MORRIS         PTSUNNY   75  66  73 S17       29.90F
ALEXANDRIA     FAIR      77  65  66 S16       29.96F
ELBOW LAKE     FAIR      74  65  74 SE15G23   29.90F
WADENA         FAIR      73  64  73 S14       29.94F
GLENWOOD       FAIR      75  64  69 S20       29.97F
APPLETON       CLOUDY    77  63  61 S10G17    29.90F
BENSON         CLOUDY    77  64  65 SW17G23   29.94F
ORTONVILLE     CLOUDY    73  64  73 S5        29.90S
MADISON        CLOUDY    79  64  61 SE18      29.88F
WILLMAR        FAIR      73  64  73 SW5       30.00F
$$
MNZ033>034-036-042>043-049>051-058-059-241500-
   Central Minnesota

CITY           SKY/WX    TMP DP  RH WIND       PRES   REMARKS
ST CLOUD       PTSUNNY   70  64  81 E9        30.01F
SAUK CENTRE    FAIR      74  67  78 S10       29.98F
PAYNESVILLE    FAIR      75  67  75 S16       30.00S
PINE RIVER     FAIR      66  61  82 SE14      30.01F
BRAINERD       FAIR      71  65  81 SE8       30.00F
STAPLES        FAIR      72  63  73 SE10G18   29.97F
LONG PRAIRIE   FAIR      70  64  83 E13       29.99F
LITTLE FALLS   FAIR      70  66  88 SE9       30.00F
LITCHFIELD     FAIR      77  68  73 S8        30.01S
BUFFALO        FAIR      76  64  64 S8        30.03F
MAPLE LAKE     FAIR      77  67  70 S8        30.02F
HUTCHINSON     FAIR      78  68  72 S10G16    30.02F
$$
MNZ037-044-045-052-053-241500-
   East Central Minnesota

CITY           SKY/WX    TMP DP  RH WIND       PRES   REMARKS
PRINCETON      FAIR      72  66  83 E3        30.04F
MORA           FAIR      68  63  83 E7        30.06F
CAMBRIDGE      FAIR      75  63  64 E6        30.04F
RUSH CITY      FAIR      70  65  83 E5        30.06F
MOOSE LAKE     LGT RAIN  63  61  94 SE5       30.02F
HINCKLEY       FAIR      68  64  88 E7        30.06F
CLOQUET        RAIN      63  61  94 S7        30.06F
MCGREGOR       PTSUNNY   64  63  94 SE3       30.02F
$$
MNZ071>073-080-081-089-090-097-098-241500-
   Southwest Minnesota

CITY           SKY/WX    TMP DP  RH WIND       PRES   REMARKS
MONTEVIDEO     CLOUDY    73  64  73 S13G18    29.93F
CANBY          CLOUDY    73  63  68 SW13G26   29.94R
MARSHALL       CLOUDY    70  64  81 S14       29.95F
REDWOOD FALLS  CLOUDY    74  67  78 S15       29.98F
OLIVIA         CLOUDY    73  68  83 S9G16     29.98F
PIPESTONE      PTSUNNY   68  64  88 S10       29.97F
WINDOM         CLOUDY    73  54  49 S10       30.02F
WORTHINGTON    CLOUDY    72  65  78 S13       30.03F
JACKSON        CLOUDY    72  64  78 S10       30.05F
TRACY          CLOUDY    69  67  90 S13       29.97F
SLAYTON        CLOUDY    68  66  92 S10       30.02F
$$
MNZ065>067-074>077-082>085-091>093-241500-
   South Central Minnesota

CITY           SKY/WX    TMP DP  RH WIND       PRES   REMARKS
MANKATO        FAIR      77  66  68 S13       30.05S
NEW ULM        CLOUDY    75  64  69 S10G18    30.02F
ST JAMES       CLOUDY    75  66  73 S13       30.04F
FAIRMONT       CLOUDY    73  67  81 S13       30.06R
GLENCOE        FAIR      79  65  63 S12       30.02S
FARIBAULT      FAIR      77  64  65 CALM      30.06S
OWATONNA       FAIR      75  64  69 S13       30.07S
WASECA         FAIR      77  64  65 S13       30.07F
ALBERT LEA     FAIR      72  63  73 S8        30.08S
$$
MNZ078>079-086>088-094>096-241500-
   Southeast Minnesota

CITY           SKY/WX    TMP DP  RH WIND       PRES   REMARKS
ROCHESTER      FAIR      74  65  73 S17G24    30.10F
RED WING       FAIR      75  61  60 S6        30.06F
STANTON        FAIR      78  65  65 S7        30.04F
DODGE CENTER   FAIR      75  64  69 S16       30.09F
WINONA         FAIR      73  61  64 SE3       30.07F
AUSTIN         FAIR      73  64  73 S9        30.09F
PRESTON        FAIR      73  62  68 S15       30.12F
$$
ABBREVIATIONS USED IN REMARKS
   TC - TEMPERATURES IN CELSIUS
  WCI - WIND CHILL INDEX
   HX - HEAT INDEX
  VSB - VISIBILITY
$$




USA.gov is the U.S. government's official web portal to all federal, state and local government web resources and services.